RH
79 74 61 82 96 89 84 62 58 51 55 46 49 60 70 66 67 91 84 80 71 77 79 76 81 81 82 84 85 84 84 85 85 84 84 84 80 81 81 78 77 78 76 72 72 72 71 70 69
72 68 86 90 92 91 89 62 58 50 49 47 49 51 62 76 64 77 86 64 63 69 74 74 85 83 83 84 84 82 80 80 84 84 84 83 80 81 78 74 75 75 74 71 71 70 71 71 70
60 57 93 96 84 81 86 68 49 56 52 46 48 45 58 78 64 69 61 56 58 62 68 76 84 82 82 83 83 82 81 80 82 82 82 81 79 77 74 73 73 73 72 72 70 70 70 71 70
55 90 94 87 57 61 58 54 66 51 45 41 47 64 55 50 58 56 53 51 59 66 73 80 82 81 80 82 82 80 80 81 81 80 81 79 77 73 72 71 70 70 70 71 70 71 69 69 71
73 89 91 77 45 45 43 51 59 43 42 47 50 65 64 50 47 50 46 53 65 69 74 77 82 81 81 82 81 81 79 78 80 80 79 78 77 74 72 69 68 68 69 70 70 67 69 68 70
89 84 76 43 36 33 34 33 37 39 42 45 52 57 59 47 49 46 49 56 59 67 71 74 80 82 82 79 78 80 79 78 80 80 78 78 77 77 74 70 70 66 66 67 69 67 69 69 69
75 72 48 38 32 26 37 32 41 40 47 47 47 64 55 52 49 46 49 49 54 62 70 78 77 77 79 82 80 79 80 80 80 79 78 77 76 75 72 71 69 66 65 66 67 66 68 69 70
56 58 40 40 33 24 24 24 41 35 44 40 43 59 59 53 47 47 48 51 59 64 72 76 81 81 84 82 78 76 77 77 76 76 76 76 72 68 68 75 73 64 64 65 67 66 70 71 73
38 58 64 45 27 20 19 31 29 28 44 43 46 44 50 44 45 48 55 58 62 64 68 72 77 82 89 85 77 78 75 75 75 76 77 77 82 82 71 73 72 63 65 65 66 70 73 73 74
23 41 35 26 22 17 17 28 32 34 43 50 46 44 47 45 49 52 59 65 66 63 67 68 71 76 77 67 85 89 78 82 85 83 84 84 83 92 83 77 70 69 70 68 70 72 72 72 76
18 28 24 19 18 14 17 18 20 32 43 45 51 52 50 51 54 54 57 58 61 59 59 63 68 71 76 69 82 85 82 81 79 78 83 80 94 90 95 96 89 94 75 90 81 78 79 70 63
19 17 17 19 19 17 16 16 22 23 35 34 40 48 49 54 55 54 53 56 56 57 56 58 65 68 76 76 79 76 72 73 77 80 76 81 91 97 96 94 97 96 93 88 88 92 78 66 61
16 16 13 15 17 17 14 16 22 22 32 33 34 38 47 50 50 50 48 47 48 54 55 58 68 77 70 80 73 67 68 66 69 66 74 74 88 97 97 95 97 96 93 91 92 86 70 77 64
12 12 15 13 13 18 18 16 20 25 32 35 36 38 39 52 50 48 46 46 45 56 62 63 73 78 79 85 83 76 62 63 64 68 73 77 87 91 90 92 75 73 76 81 75 82 77 71 71
10 12 10 11 12 14 20 35 19 23 25 38 40 39 38 39 41 44 44 44 47 54 60 65 73 75 80 84 80 78 78 63 62 72 72 71 78 79 84 90 90 88 82 79 79 76 78 71 68
12 12 15 11 11 12 20 42 25 19 27 35 37 38 39 41 38 38 37 41 40 47 64 68 58 69 79 83 84 82 74 77 74 76 78 78 76 84 84 91 91 94 82 79 89 90 82 83 78
14 15 14 13 10 15 18 34 18 17 26 30 34 35 37 40 39 43 38 42 44 53 61 62 61 66 74 84 85 81 71 82 74 77 81 86 82 82 86 92 89 83 92 89 84 85 79 70 73
17 16 13 14 14 16 28 31 27 21 21 29 30 31 34 37 39 38 38 42 47 56 58 55 67 69 73 80 88 87 88 85 76 81 80 80 83 81 88 86 90 83 91 88 86 78 77 77 77
12 12 13 11 14 17 33 37 32 23 27 30 31 31 32 34 32 37 38 37 48 58 61 62 68 79 75 77 84 91 92 88 82 76 82 80 87 87 86 90 89 85 89 88 74 79 77 79 81
11 13 13 11 13 18 35 34 25 20 21 23 25 30 31 32 32 37 37 38 43 55 60 66 63 84 74 78 79 86 84 83 81 80 82 78 85 85 84 90 91 86 86 84 78 78 86 85 77
12 13 13 14 13 16 32 47 42 27 26 26 24 24 28 30 32 35 36 38 40 53 67 66 65 74 81 81 79 94 93 92 87 86 88 78 81 86 84 89 91 87 84 88 80 79 82 81 85
15 11 11 12 13 22 21 38 50 34 39 38 31 22 24 28 29 32 35 38 40 53 58 66 70 73 78 84 79 87 89 87 81 82 68 77 86 87 83 84 90 88 84 87 82 80 84 88 84
12 11 11 11 14 26 22 29 35 34 42 45 33 20 21 22 26 32 36 36 38 45 57 70 70 71 74 76 80 82 86 72 78 84 81 88 92 83 82 88 90 83 78 88 86 80 79 90 87
6 10 12 12 15 20 24 24 34 33 41 43 25 21 20 20 23 30 32 36 37 45 54 65 76 78 78 76 87 85 84 80 74 86 94 80 79 84 89 84 86 84 86 83 82 84 83 88 88
6 11 17 21 22 25 18 25 33 20 21 21 22 21 21 20 21 25 34 38 39 47 54 67 75 79 80 80 78 86 76 77 86 87 82 81 79 93 90 84 83 83 86 86 84 83 85 84 85
8 8 14 29 25 22 18 19 20 17 19 18 22 20 20 22 20 24 33 35 40 43 56 63 74 76 79 81 82 75 86 66 71 83 83 74 74 75 81 78 81 83 76 88 91 89 88 85 84
9 9 8 15 20 25 18 17 13 18 18 18 20 22 21 19 22 22 28 33 40 43 56 59 75 76 77 80 81 80 78 75 76 86 86 80 67 73 76 85 84 82 82 87 89 90 85 88 87
6 9 11 9 17 23 17 20 21 22 21 24 24 23 20 21 21 22 26 33 40 41 49 56 66 75 76 74 81 80 79 71 74 87 82 81 76 79 73 85 85 88 79 85 89 86 89 88 88
9 8 9 11 11 18 25 19 17 20 25 26 21 18 19 21 20 22 25 30 38 40 46 54 65 73 76 76 77 78 80 77 72 86 80 79 78 82 78 77 88 82 81 83 89 85 82 90 82
7 10 9 17 18 20 15 16 13 10 23 20 18 20 16 23 20 21 23 28 39 42 43 51 66 70 72 73 75 78 79 79 78 72 80 83 74 76 76 80 76 83 79 83 85 82 77 84 90
Wind_Speed
18 12 6 1 2 2 4 4 1 6 3 4 12 11 11 10 4 7 7 10 14 11 9 12 15 18 18 17 17 17 16 16 15 14 15 15 14 13 12 13 13 12 11 12 10 10 10 9 7
13 13 5 1 1 3 4 3 7 11 13 17 13 12 11 9 10 14 11 17 16 14 9 11 14 16 17 17 16 16 15 16 14 13 14 13 12 11 12 13 12 11 10 9 9 8 8 8 6
17 18 4 2 2 10 6 7 13 18 19 10 7 10 9 11 15 16 14 19 17 14 12 12 16 16 16 16 15 15 14 14 12 11 13 11 11 11 12 12 10 10 8 7 7 7 6 6 5
7 5 8 4 10 9 10 5 12 16 12 12 14 12 12 10 14 13 20 19 16 15 13 15 17 17 16 15 14 14 13 12 11 10 11 10 10 11 10 9 8 7 7 6 5 6 5 4 3
3 5 4 3 8 7 6 23 12 17 14 18 23 17 19 17 18 19 20 16 16 14 13 13 17 17 16 15 14 13 13 12 10 9 9 8 8 9 8 7 6 5 5 3 5 5 4 3 2
4 0 3 9 4 11 7 16 23 23 23 21 24 20 12 21 20 18 15 15 16 15 12 12 16 17 16 16 14 13 13 12 10 8 8 7 8 7 6 4 4 4 3 4 4 4 3 1 2
6 4 8 15 10 14 22 20 18 24 25 17 16 25 17 20 17 16 16 14 15 15 13 11 10 14 17 15 14 13 12 11 10 9 8 7 7 7 5 4 3 4 4 3 2 1 1 1 4
6 4 14 9 5 7 11 7 34 20 17 21 25 12 22 22 20 16 13 14 17 15 13 11 9 8 9 9 14 13 12 12 11 10 8 5 4 6 7 6 4 3 2 2 2 1 1 4 5
4 4 2 13 7 7 8 23 20 17 25 17 4 16 22 24 22 17 12 10 11 13 14 12 11 9 7 7 9 11 13 12 11 9 8 7 4 3 5 3 6 1 2 3 2 4 5 6 8
9 6 16 7 17 6 12 21 15 18 19 12 22 20 23 23 20 17 13 13 9 15 15 14 14 12 11 9 6 6 6 5 5 6 7 4 4 5 5 6 9 5 5 3 3 6 9 6 4
10 6 7 4 13 8 12 14 12 20 16 23 30 28 25 22 19 17 13 12 10 15 12 14 14 13 12 9 7 4 4 4 5 7 6 5 4 4 3 2 1 5 3 1 1 3 4 4 1
11 16 7 11 7 6 14 11 16 15 20 25 29 32 26 24 20 20 15 16 14 14 15 14 16 13 9 8 7 7 6 5 5 5 7 5 5 4 4 2 1 4 2 4 2 3 5 1 3
15 12 13 12 15 7 13 12 18 14 27 26 24 25 25 24 22 20 20 17 17 14 18 14 10 10 11 10 7 7 7 7 6 7 6 3 5 5 3 3 5 6 4 2 3 3 3 3 4
17 14 14 15 14 14 9 13 11 23 28 27 24 19 20 24 23 20 18 17 18 18 18 16 11 10 9 6 6 4 6 5 5 5 5 6 5 5 5 4 1 1 4 4 3 3 2 3 3
16 15 15 13 7 6 13 13 2 22 25 27 24 19 15 15 23 22 21 17 20 18 19 17 14 11 8 7 5 3 2 3 5 5 8 7 6 5 5 3 1 1 1 3 2 3 2 4 4
14 9 7 11 10 8 13 15 18 18 23 24 24 21 18 13 13 17 16 17 18 18 20 17 15 15 10 8 5 3 1 2 3 5 4 6 7 7 5 3 3 4 1 2 2 2 0 2 3
7 10 10 12 9 7 9 8 18 13 21 21 22 21 19 16 13 9 11 11 17 14 20 18 17 16 12 7 5 4 4 2 3 4 5 6 6 7 4 3 4 4 2 3 2 1 1 1 3
9 7 12 12 7 11 8 10 9 11 16 21 21 21 20 18 17 17 15 10 13 14 16 17 11 15 12 8 6 4 2 3 4 4 5 6 5 6 5 3 5 4 3 3 2 2 1 1 2
14 16 17 16 9 11 10 11 12 13 9 8 20 21 21 21 17 17 16 15 11 13 15 14 10 13 11 8 7 4 4 3 4 4 7 8 6 7 6 4 4 4 4 5 3 2 1 2 1
20 19 19 16 12 9 14 16 18 18 16 14 18 21 22 22 20 19 19 19 17 16 16 14 13 11 12 9 7 4 4 4 3 3 5 8 8 7 6 5 3 4 3 4 4 3 1 2 1
22 20 18 12 12 12 16 2 6 8 3 8 12 21 22 24 23 21 23 20 19 18 17 16 16 12 11 11 7 3 2 0 1 3 3 7 8 7 7 7 5 4 4 5 5 4 4 1 3
19 22 21 21 13 9 13 6 6 11 6 6 15 20 22 24 23 23 24 22 22 18 18 18 16 15 11 10 10 7 5 4 4 5 7 7 7 8 7 7 7 5 4 6 4 4 3 3 1
20 13 21 21 13 8 16 4 8 13 19 30 25 23 22 22 23 25 25 25 23 21 21 18 19 17 14 13 10 8 6 7 6 4 7 7 6 8 9 8 7 7 5 5 7 5 4 3 3
16 15 17 17 11 11 13 13 7 12 26 26 24 20 23 22 23 24 26 24 21 19 20 19 20 18 16 15 11 13 11 10 9 4 5 8 7 6 7 8 8 7 6 7 6 5 5 4 4
20 11 12 12 10 8 10 12 10 16 12 24 24 21 19 21 22 21 24 22 22 21 22 19 21 19 18 18 17 13 15 12 10 7 7 9 7 3 8 10 10 6 6 6 6 6 5 5 2
14 18 13 14 13 9 9 13 9 15 13 21 16 22 19 14 21 23 25 25 23 22 22 22 22 21 19 19 17 15 11 11 9 6 5 8 9 9 9 11 10 9 8 7 6 4 4 5 5
14 20 14 6 8 6 8 9 13 15 15 19 16 17 23 20 14 22 22 24 23 22 22 24 22 21 21 19 17 16 15 15 11 7 7 7 10 9 12 10 11 10 8 8 7 5 5 5 5
21 8 13 15 17 18 16 11 12 6 17 15 15 16 19 16 19 19 21 23 22 23 21 23 23 23 21 20 17 16 17 17 10 7 9 9 7 8 13 12 12 10 10 8 8 6 5 5 5
12 17 13 8 15 12 10 17 8 12 13 19 20 23 20 23 25 21 24 23 23 21 20 21 23 23 20 20 18 18 16 15 14 9 10 10 9 10 13 13 12 12 12 11 9 8 7 7 7
24 12 14 8 10 6 9 16 11 16 1 21 26 14 13 10 29 26 23 22 21 24 22 21 21 23 22 21 19 19 17 15 15 15 11 10 12 11 15 14 14 13 13 12 12 11 8 8 8
Wind_Direction
157 160 175 353 178 60 323 56 31 87 55 68 86 86 92 25 63 134 139 167 144 134 141 143 136 131 126 125 118 116 113 108 109 110 107 106 109 111 109 103 97 97 92 87 86 82 83 79 79
158 167 58 38 140 90 306 275 176 102 78 98 97 96 80 79 79 119 139 152 136 141 142 144 135 134 131 129 124 125 120 113 107 104 105 107 114 115 106 100 99 96 94 91 85 80 78 80 70
164 176 125 216 200 118 231 212 142 133 152 151 115 84 74 106 112 139 145 140 148 139 139 144 141 139 136 134 136 128 123 118 117 117 113 116 120 117 107 104 103 100 98 95 83 73 68 65 67
168 80 279 251 164 207 157 353 12 144 148 116 124 78 77 117 126 142 153 149 124 125 132 142 143 144 145 140 140 136 129 127 128 126 119 123 122 112 104 101 98 99 92 85 77 70 57 67 58
139 230 228 163 160 160 180 137 129 101 101 109 110 115 119 112 133 151 143 126 124 128 137 139 143 149 147 146 146 143 140 139 140 133 129 127 121 115 112 100 101 112 107 90 75 70 62 52 41
71 111 308 336 238 168 132 111 110 115 115 110 109 120 113 128 130 139 128 134 131 130 138 143 145 147 148 152 151 150 151 152 147 143 143 137 127 125 124 123 118 91 60 65 77 83 74 336 307
115 139 316 323 330 89 131 134 118 128 127 126 119 119 137 138 144 147 143 142 131 128 139 138 147 151 153 153 153 154 153 159 156 163 159 156 145 148 162 171 153 114 84 52 86 116 107 286 287
125 97 344 316 318 91 141 125 145 153 118 122 130 139 148 144 139 137 138 134 133 137 140 151 153 146 151 155 152 156 161 164 168 167 173 169 182 190 188 198 204 138 100 7 347 336 330 297 288
148 93 70 277 286 119 97 107 126 126 129 140 343 147 134 145 141 144 143 140 141 147 153 154 155 157 157 150 163 162 165 163 169 173 182 197 191 273 239 149 243 272 251 275 18 318 274 260 279
220 176 196 213 300 202 140 128 135 133 130 131 132 131 143 143 144 150 150 151 155 152 158 162 162 167 164 162 162 166 172 166 179 188 193 198 204 65 28 47 3 314 216 277 345 318 288 275 260
239 216 191 308 276 193 139 125 130 145 142 153 149 150 155 148 152 151 155 166 167 163 165 162 165 171 170 163 172 176 180 187 194 201 176 206 127 139 133 98 314 280 242 105 340 288 268 258 76
246 225 175 161 256 185 148 144 145 160 141 145 149 153 157 155 159 155 167 174 180 170 172 164 167 167 171 158 179 180 187 197 190 194 182 182 135 148 148 197 222 269 249 239 214 267 249 122 48
263 228 221 204 210 168 137 152 161 159 138 140 145 154 161 161 164 164 176 177 177 164 162 163 166 149 170 174 187 187 191 198 191 180 185 158 130 139 157 204 219 235 221 217 209 209 355 14 323
269 279 225 247 185 161 169 139 115 135 139 144 149 164 169 166 168 170 180 185 179 160 165 162 164 161 165 183 183 204 191 168 173 166 177 137 139 157 166 207 179 249 155 159 133 98 5 316 326
280 286 284 252 163 176 119 43 162 147 144 148 152 162 188 169 172 174 180 187 161 168 167 165 163 168 167 184 189 190 163 158 137 156 174 165 154 155 152 175 127 9 316 136 124 97 2 342 340
274 287 286 262 181 220 121 187 223 151 144 151 156 165 181 197 177 179 181 169 168 163 165 167 169 169 174 167 170 209 212 126 135 117 153 178 166 154 153 139 191 229 138 149 82 102 316 298 330
282 257 264 270 201 152 120 123 148 162 152 158 162 168 178 189 193 175 173 160 166 156 156 167 170 174 174 169 162 190 218 231 193 136 128 144 155 152 172 160 184 200 176 98 134 185 106 294 325
242 247 256 247 241 154 108 150 170 181 157 166 166 170 174 186 194 182 177 167 157 157 160 172 159 171 172 171 155 168 207 246 197 148 166 173 182 182 196 169 192 184 132 145 138 136 324 236 261
245 247 250 247 194 136 144 163 193 192 173 183 172 173 175 183 189 180 177 176 159 162 164 169 161 163 168 170 165 175 187 199 219 192 177 179 177 191 184 192 173 182 164 180 159 123 77 308 186
246 255 264 281 195 142 157 184 192 201 207 192 187 176 179 180 183 176 183 180 175 173 173 173 175 151 171 172 172 165 167 215 193 208 176 185 185 180 168 177 185 216 154 131 134 127 61 296 122
231 245 259 258 258 187 166 279 215 267 160 184 217 179 181 182 184 180 182 181 180 178 176 179 179 171 163 161 161 154 146 8 218 203 199 180 182 179 167 170 151 157 130 155 153 166 141 125 319
221 235 251 262 269 241 188 218 207 218 164 317 271 193 186 186 184 182 181 183 182 179 178 176 178 176 172 162 171 162 170 185 222 202 190 193 176 174 174 162 165 148 138 143 164 153 145 121 179
232 223 241 257 259 160 220 273 190 184 174 197 234 195 192 186 181 184 185 186 184 177 178 175 178 179 176 178 171 175 183 201 224 202 181 171 162 167 157 163 148 157 150 164 158 149 150 146 137
243 232 248 253 252 249 215 216 226 183 189 211 208 198 189 188 186 184 187 182 186 177 175 174 172 179 175 179 177 180 191 202 216 201 163 173 171 176 167 160 160 162 154 158 163 164 167 172 148
217 223 239 250 241 229 219 214 218 212 218 198 190 196 191 186 186 185 184 186 183 177 176 172 174 178 177 181 189 184 196 212 205 188 170 161 174 164 177 160 169 165 158 163 153 163 171 172 165
215 215 225 230 231 255 252 231 244 207 203 189 164 198 174 178 194 186 187 187 185 179 174 173 177 179 179 182 189 194 192 211 217 190 166 175 178 179 172 174 165 161 162 158 165 173 183 179 185
231 215 222 247 244 255 241 263 260 211 216 199 173 166 184 208 181 200 184 186 183 179 175 175 175 178 182 180 187 193 201 209 209 189 179 183 184 174 181 167 162 168 162 162 166 178 193 191 189
210 205 204 224 230 244 251 247 244 281 196 178 171 180 194 193 201 197 183 185 184 181 174 175 174 178 181 186 185 194 202 208 201 178 202 180 185 161 173 168 167 163 172 172 169 178 201 196 199
224 219 227 194 220 235 238 247 242 231 191 181 187 200 196 194 202 188 185 184 180 176 175 174 174 175 181 185 188 194 203 202 201 191 203 190 183 165 173 174 167 173 174 181 173 183 193 194 204
207 196 201 214 231 248 236 252 274 239 193 204 193 202 226 169 197 194 180 175 173 177 178 179 172 176 182 186 189 196 200 197 198 207 204 188 194 178 177 178 179 176 181 181 183 187 188 196 198